Simultaneous Nadir Overpasses (SNOs) Predictions

Prediction of SNOs between AQUA and NOAA-19 Satellite Orbit:

Table of predicted SNOs for the next 14.0 days since TLE Epoch: 7/26/2013
Index Date (AQUA) Time (AQUA) Lat,Lon (AQUA) SZA (AQUA ) Date (NOAA-19) Time (NOAA-19) Lat,Lon (NOAA-19) SZA (NOAA-19 ) Distance(km) Time Diff (sec)
1 07/28/2013 11:59:10 81.62, -79.17 70.02 07/28/2013 11:57:57 80.90, -77.94 69.80 83.01 73
2 07/28/2013 12:38:13 -53.55,-176.82 144.43 07/28/2013 12:38:20 -53.55,-176.84 144.42 1.50 7
3 07/30/2013 16:44:19 80.46,-168.59 73.42 07/30/2013 16:43:07 79.75,-166.35 73.24 90.59 72
4 07/30/2013 17:22:35 -53.73, 112.01 143.75 07/30/2013 17:22:40 -53.73, 112.01 143.74 0.03 5
5 08/01/2013 21:29:24 78.76, 107.72 76.63 08/01/2013 21:28:12 78.10, 110.57 76.42 97.42 72
6 08/01/2013 22:06:54 -53.75, 40.92 143.19 08/01/2013 22:06:57 -53.74, 40.95 143.18 1.95 3
7 08/04/2013 02:51:30 -54.78, -30.67 141.71 08/04/2013 02:51:32 -54.78, -30.67 141.70 0.29 2
8 08/06/2013 07:36:04 -55.70,-102.23 140.29 08/06/2013 07:36:05 -55.71,-102.25 140.28 0.99 1




NCC Satellite Simultaneous Nadir Overpasses (SNOs) Prediction Service
